Current Version              Previous Version:    01  02  03  04  05  06  07  08  09  10  11  12  13  14  15  16  17  18  19  20  21  22  23  24  25  26  27  28  29  30  
   31  32  33  34  35  36  37  38  39  40  41  42  43  44  45  46  47  48  49  50  51  52  53  54  55  56  57  58  59  60  

[Printable]
879
ASUS44 KLUB 011201
RWRTX
WEST TEXAS WEATHER ROUNDUP
NATIONAL WEATHER SERVICE LUBBOCK TX
700 AM CDT WED OCT 01 2014

NOTE: "FAIR" INDICATES FEW OR NO CLOUDS BELOW 12,000 FEET WITH NO
SIGNIFICANT WEATHER AND/OR OBSTRUCTIONS TO VISIBILITY.

TXZ004-006>008-010-012-014-016-OKZ002-011300-
TEXAS PANHANDLE/OKLAHOMA PANHANDLE

CITY           SKY/WX    TMP DP  RH WIND       PRES   REMARKS
AMARILLO       CLEAR     55  41  59 SW9       29.81R
BORGER         CLEAR     58  41  53 SW10      29.77R
CANADIAN       CLEAR     56  55  97 SW5       29.72R
DALHART        CLEAR     54  42  64 NW10      29.83R
DUMAS          CLEAR     52  43  73 NW10      29.79R
GUYMON         CLEAR     55  43  63 NW9       29.75R
HEREFORD       CLEAR     52  46  79 W7        29.84R
PERRYTON       CLEAR     55  44  66 W12       29.73R
$$

TXZ026-029-035-045-048-011300-
SOUTHERN PANHANDLE/SOUTH PLAINS/ROLLING PLAINS

CITY           SKY/WX    TMP DP  RH WIND       PRES   REMARKS
CHILDRESS      CLEAR     68  63  84 SW9       29.75R
SEMINOLE       CLEAR     60  59  98 CALM      29.85R
LUBBOCK        CLEAR     57  52  83 SW7       29.83R
PLAINVIEW      CLEAR     54  52  93 W3        29.82R
SNYDER         CLEAR     66  62  89 S7        29.83R
$$

TXZ052-054-060>062-072-078-127-140-154-169-011300-
PERMIAN BASIN/CONCHO VALLEY/BIG COUNTRY/EDWARDS PLATEAU

CITY           SKY/WX    TMP DP  RH WIND       PRES   REMARKS
ABILENE        PTCLDY    73  62  68 S12       29.80R
BIG SPRING     CLEAR     66  61  84 S6        29.84S
BRADY          CLEAR     70  68  94 SE7       29.82S
JUNCTION       CLOUDY    72  68  87 SW5       29.83S
MIDLAND        PTCLDY    68  62  81 S3        29.83R
ODESSA         CLEAR     67  62  84 S6        29.84R
SAN ANGELO     CLEAR     71  64  78 SW10      29.80R
SONORA         CLOUDY    72  70  94 S8        29.88R
SWEETWATER     CLEAR     70  63  78 S10       29.84S
WINK           CLEAR     66  64  93 SE8       29.80S
$$

TXZ055-058-074-075-080-082-011300-
FAR WEST/SOUTHWEST MOUNTAINS/TRANS PECOS

CITY           SKY/WX    TMP DP  RH WIND       PRES   REMARKS
ALPINE         CLEAR     61  56  82 SW5       29.99S
DRYDEN           N/A     70  66  87 N6        29.80R
EL PASO        CLEAR     66  36  32 S12       29.89R
FORT STOCKTON  CLEAR     66  60  81 S6        29.84R
GUADALUPE PASS CLEAR     57  39  51 SW18      29.97R
MARFA          CLEAR     52  50  93 N3        29.98S
PRESIDIO       FAIR      70  60  70 N3        29.84R
$$

TXZ014-016-019-021>030-083-011300
TEXAS TECH WEST TEXAS MESONET/TEXAS PANHANDLE/NORTHERN SOUTH PLAINS

CITY           SKY/WX    TMP DP  RH WIND       PRES   REMARKS
AMARILLO 9NNE    N/A     51  41  69 SW5       29.80S
AMARILLO 7SSE    N/A     47  43  85 W9        29.83R
AMHERST 1NE      N/A     52  48  85 S2        29.85R
BOOTLEG 11WNW    N/A     50  39  64 NW9       29.89R
CANADIAN 6E      N/A     59  58  94 S5        29.71R
CAPROCK CYN SP   N/A     65  49  56 NW1       29.78R
CHILDRESS 2NNE   N/A     65  62  89 S6        29.73S
CLARENDON 2WSW   N/A     58  47  68 SW8       29.77S
CLAUDE 12SW      N/A     60  41  50 W9        29.80R
FLOYDADA 2NNE    N/A     54  52  91 SW7       29.81S
FRIONA 2NE       N/A     48  43  82 SW5       29.86R
GOODLETT 3W      N/A     68  61  78 SW7       29.72R
HART 3N          N/A     48  45  88 NW6       29.83R
HEREFORD 2NW     N/A     49  43  80 SW8       29.84R
MCLEAN 1E        N/A     58  50  75 SW8       29.74S
MEMPHIS 1NE      N/A     58  57  95 SW3       29.73S
OLTON 6S         N/A     50  48  90 SW6       29.83S
PALO DURO SP     N/A     58  42  55 W13       29.82R
PAMPA 2E         N/A     60  41  50 SW10      29.76S
PLAINVIEW 1S     N/A     53  51  94 SW5       29.82R
SILVERTON 7ESE   N/A     53  50  90 SW9       29.81R
TULIA 2ENE       N/A     53  45  74 W8        29.82R
TURKEY 2WSW      N/A     62  54  74 W13       29.76R
UMBARGER 3NNE    N/A     50  44  78 SW9       29.84R
$$

TXZ033>036-039>041-045>048-011300
TEXAS TECH WEST TEXAS MESONET/SOUTH PLAINS

CITY           SKY/WX    TMP DP  RH WIND       PRES   REMARKS
AIKEN 3WSW       N/A     52  51  97 SW5       29.84R
BROWNFIELD 2S    N/A     58  55  91 SW7       29.83S
DENVR CTY 7WNW   N/A     58  55  89 SW8       29.84S
GAIL 2ESE        N/A     66  62  86 S6        29.81R
LAMESA 2SE       N/A     62  60  94 S5        29.83S
LEVELLAND 4S     N/A     52  49  89 W7        29.84R
LUBBOCK 3WNW     N/A     55  51  83 SW2       29.83S
MORTON 1ENE      N/A     51  48  90 S6        29.85R
ODONNELL 1N      N/A     61  59  93 S3        29.83S
PLAINS 3N        N/A     54  48  80 W7        29.86R
RALLS 1SE        N/A     61  59  92 SW7       29.83R
REESE CENTER     N/A     55  50  85 SW5       29.83R
SEMINOLE 2NNE    N/A     60  57  91 SW2       29.83S
SLATON 2NE       N/A     60  58  95 W3        29.83R
SNYDER 3E        N/A     65  62  89 S7        29.82R
SUNDOWN 8SW      N/A     52  48  85 W8        29.85R
TAHOKA 3NNE      N/A     63  62  95 SW6       29.82S
WOLFFORTH 6SSW   N/A     56  53  91 W3        29.84R
$$

TXZ031-032-036>038-042>044-011300-
TEXAS TECH WEST TEXAS MESONET/ROLLING PLAINS

CITY           SKY/WX    TMP DP  RH WIND       PRES   REMARKS
ASPERMONT 3NE    N/A     71  62  75 S9        29.76R
FLUVANNA 3WNW    N/A     66  61  84 S9        29.82R
GRAHAM 5SSW      N/A     66  61  84 S1        29.82R
GUTHRIE 10WSW    N/A     66  62  87 S8        29.76S
HASKELL 1NW      N/A     71  60  69 S7        29.76R
KNOX CITY 3NW    N/A     67  59  75 SW3       29.75R
LK A HENRY 1NW   N/A     70  63  79 SW7       29.79R
ODELL 4ENE       N/A     71  62  71 S12       29.74R
PADUCAH 10SW     N/A     67  63  88 S10       29.75R
POST 1NE         N/A     67  62  85 S5        29.80S
RRING SPRGS 3N   N/A     65  63  93 SW6       29.79R
SEYMOUR 3NW      N/A     72  60  67 W10       29.74S
SPUR 1W          N/A     64  61  90 SW6       29.78R
WEINERT 2NNE     N/A     69  61  75 S9        29.76R
WHITE RVR 6NE    N/A     65  62  90 SW7       29.80R
$$

TXZ052-054-060>062-072-078-127-140-154-169-011300-
TEXAS TECH WEST TEXAS MESONET/PERMIAN BASIN/
CONCHO VALLEY/BIG COUNTRY/EDWARDS PLATEAU

CITY           SKY/WX    TMP DP  RH WIND       PRES   REMARKS
COYANOSA 2N      N/A     64  61  90 S2        29.82R
JUNCTION 1SSW    N/A     72  68  88 S6        29.84R
MERTZON 3NNE     N/A     69  63  81 S8        29.82R
SAN ANGELO 7NW   N/A     69  61  76 SE1       29.81R
STRLNG CT 4WSW   N/A     69  63  82 SE6       29.82S
ST LAWRNCE 5SW   N/A     68  62  80 S9        29.82R
SWEETWATR 11SW   N/A     70  63  77 S13       29.82S
WALL 1E          N/A     71  65  80 S9        29.81S
$$

TXZ055-058-074-075-080-082-011300-
TEXAS TECH WEST TEXAS MESONET/FAR WEST/SOUTHWEST MOUNTAINS/TRANS PECOS

CITY           SKY/WX    TMP DP  RH WIND       PRES   REMARKS
PRSMN GAP BBNP   N/A     69  63  80 N6        29.85R
GUADLPE MTN NP   N/A     67  34  29 W13       29.96R
$$